Regional Weather Roundup
Issued by NWS

Home | Current Version | Previous Version | Graphics & Text | Print | Product List | Glossary On
Versions: 1 2 3 4 5 6 7 8 9 10 11 12 13 14 15 16 17 18 19 20 21 22 23 24 25 26 27 28 29 30 31 32 33 34 35 36 37 38 39 40 41 42 43 44 45 46 47 48 49 50
391
ASUS43 KDTX 281901
RWRMI
MICHIGAN HOURLY REGIONAL WEATHER ROUNDUP
NATIONAL WEATHER SERVICE DETROIT/PONTIAC MI
300 PM EDT SUN AUG 28 2016

NOTE: "FAIR" INDICATES FEW OR NO CLOUDS BELOW 12,000 FEET WITH NO
SIGNIFICANT WEATHER AND/OR OBSTRUCTION TO VISIBILITY.

MIZ047>049-052>055-059>063-066>070-074>076-081>083-282000-
SOUTHEAST LOWER MICHIGAN

CITY           SKY/WX    TMP DP  RH WIND       PRES   REMARKS
ADRIAN         CLOUDY    73  72  96 S5        30.21S
ALMA           SUNNY     80  68  68 NW7       30.20F
ANN ARBOR      CLOUDY    83  71  67 W5        30.19F
CARO           MOSUNNY   77  70  78 NW9       30.19S
DETROIT CITY   PTSUNNY   84  70  62 NW6       30.18S
DETROIT        CLOUDY    82  71  69 NW8       30.19F
FLINT          MOSUNNY   84  69  60 NW10      30.19F
GROSSE ILE     LGT RAIN  73  71  91 CALM      30.18F
HILLSDALE      CLOUDY    84  70  63 N3        30.21S
HOWELL         MOSUNNY   84  67  56 W7        30.19F

CITY           SKY/WX    TMP DP  RH WIND       PRES   REMARKS
JACKSON        MOSUNNY   85  69  58 N6        30.19F
LAMBERTVILLE   LGT RAIN  71  67  87 SW6       30.20F
LANSING        SUNNY     83  67  58 NW9       30.20F
LAPEER         FAIR      83  67  57 NW6       30.19F
MASON          MOSUNNY   82  68  61 W7        30.19F
MONROE         LGT RAIN  73  73  99 S13       30.19R
MT. CLEMENS    PTSUNNY   86  71  60 W9        30.16F HX  91
PONTIAC        PTSUNNY   84  68  58 NW7       30.18F
PORT HURON     PTSUNNY   81  70  69 CALM      30.18S
TRI CITIES     MOSUNNY   79  66  64 NW8       30.20F
MIDLAND        FAIR      78  64  62 W6        30.18F
TROY           CLOUDY    86  68  54 NW6       30.20F
SAGINAW HB     PTSUNNY   79  66  65 W8        30.18F
$$
MIZ043>046-050>051-056>058-064>065-071>073-077>080-282000-
SOUTHWEST LOWER MICHIGAN

CITY           SKY/WX    TMP DP  RH WIND       PRES   REMARKS
BATTLE CREEK   SUNNY     81  70  69 NW5       30.20F
BENTON HARBOR  SUNNY     81  69  67 VRB5      30.20R
BIG RAPIDS     MOSUNNY   80  63  55 CALM      30.20F
COLDWATER      SUNNY     84  68  59 N3        30.19F
FREMONT        FAIR      79  63  57 W6        30.20F
HOLLAND        SUNNY     82  66  58 W7        30.20F
GRAND RAPIDS   MOSUNNY   82  65  56 VRB5      30.19F
IONIA          FAIR      79  64  59 N6        30.19F
KALAMAZOO      MOSUNNY   85  68  56 N6        30.20S
LUDINGTON      PTSUNNY   74  65  75 W8        30.20F
MARSHALL       MOSUNNY   84  70  61 W6        30.19F
MOUNT PLEASANT MOSUNNY   79  65  62 CALM      30.19F
MUSKEGON       MOSUNNY   80  67  64 W9        30.20F
SOUTH HAVEN    SUNNY     83  70  64 NW6       30.20R
$$
MIZ016>042-282000-
NORTHERN LOWER MICHIGAN

CITY           SKY/WX    TMP DP  RH WIND       PRES   REMARKS
ALPENA         PTSUNNY   81  60  48 NW9       30.18S
BEAVER ISLAND  SUNNY     74  64  69 W8        30.21S
BELLAIRE       PTSUNNY   74  61  62 NW3       30.21S
CADILLAC       SUNNY     80  61  53 W7        30.21F
CHARLEVOIX     PTSUNNY   74  65  72 W9        30.24S
FRANKFORT      MOSUNNY   75  64  68 W9        30.22S
GAYLORD        MOSUNNY   76  58  53 W14       30.21F
GRAYLING       PTSUNNY   80  61  53 W8        30.21F
HARBOR SPRINGS CLOUDY    75  65  71 W6        30.20S
HOUGHTON LAKE  SUNNY     77  61  57 W8        30.22F
MANISTEE       PTSUNNY   75  65  70 W9        30.21S
OSCODA         PTSUNNY   80  62  53 N8        30.17F
PELLSTON       CLOUDY    76  61  59 W7        30.20S
ROGERS CITY    SUNNY     73  63  71 N12       30.20S
TRAVERSE CITY  PTSUNNY   77  62  59 NE8       30.19S
$$
MIZ007>008-015-282000-
EASTERN UPPER MICHIGAN

CITY           SKY/WX    TMP DP  RH WIND       PRES   REMARKS
KINROSS        MOSUNNY   72  63  73 NW9       30.19R
MACKINAC ISLAN SUNNY     71  68  89 SW12      30.19F
NEWBERRY         N/A     73  61  66 NW8       30.20R
S. S. MARIE    MOSUNNY   74  63  68 NW13      30.17S
$$
MIZ004>006-011>014-085-282000-
CENTRAL UPPER MICHIGAN

CITY           SKY/WX    TMP DP  RH WIND       PRES   REMARKS
MANISTIQUE     PTSUNNY   75  60  59 NW5       30.20S
ESCANABA       SUNNY     74  63  68 SE12      30.19S
MENOMINEE      SUNNY    N/A N/A N/A S10       30.21S
SAWYER-GWINN   SUNNY     73  61  64 E12       30.21S
$$
MIZ001>003-009>011-084-282000-
WESTERN UPPER MICHIGAN

CITY           SKY/WX    TMP DP  RH WIND       PRES   REMARKS
IRON MOUNTAIN  SUNNY     78  57  48 VRB3      30.19F
HOUGHTON       MOSUNNY   73  59  61 NW3       30.19F
IRONWOOD       CLOUDY    73  60  63 VRB6      30.20F
$$

ABBREVIATIONS USED IN REMARKS
   TC - TEMPERATURE IN CELSIUS
  WCI - WIND CHILL INDEX
   HX - HEAT INDEX
  VSB - VISIBILITY





USA.gov is the U.S. government's official web portal to all federal, state and local government web resources and services.